Estación municipal de Susqueda - Veïnat del Coll (La Selva, )

Consulta los datos en tiempo real de la estación municipal de Susqueda - Veïnat del Coll





Hora UTC 07:15
Temperatura 11.0 ºC
Humedad 67.4 %
Presión 1012.2 hPa
Pluja 0.0 mm
Velocidad viento 6.9 km/h
Dirección viento SE
Radiación solar 452.7 W/m²

Datos diarios 2026-05-05



Hora UTC (invierno +1h; verano +2h)
Temperatura (ºC) Humedad (%) Presión (hPa) Velocidad viento (km/h) Precipitación (mm) Radiación solar (W/m²)
Hora UTC Aire Humedad Presión Vel. Dir. Vel. Max Dir. Intent. máx 5 min. Rad. Sol.
00:05 7.2 97.2 1012.1 5.2 SW 5.2 WSW 0.0 0.1
00:10 7.3 97.4 1012.1 5.9 WSW 19.8 WSW 0.0 0.1
00:15 7.3 97.5 1012.0 6.2 SW 18.7 W 0.0 0.1
00:20 7.2 97.7 1012.0 5.3 SW 15.5 SW 0.0 0.1
00:25 7.2 97.9 1012.0 7.7 WSW 21.5 WNW 0.0 0.1
00:30 7.3 98.0 1012.0 7.5 WSW 21.5 WNW 0.0 0.1
00:35 7.3 98.1 1011.9 8.3 WSW 20.5 W 0.0 0.1
00:40 7.3 98.2 1011.9 7.3 WSW 18.7 WSW 0.0 0.1
00:45 7.2 98.3 1011.9 8.3 W 25.8 WNW 0.0 0.1
00:50 7.2 98.3 1011.9 7.5 WSW 19.4 W 0.0 0.1
00:55 7.2 98.3 1011.9 6.5 WSW 19.8 W 0.0 0.1
01:00 7.1 98.3 1011.9 6.3 WSW 19.4 W 0.0 0.1
01:05 7.1 98.4 1011.8 5.6 WSW 14.5 WSW 0.0 0.1
01:10 7.0 98.4 1011.8 4.7 SW 11.6 SSW 0.0 0.1
01:15 7.0 98.4 1011.8 3.8 SW 8.8 WSW 0.0 0.1
01:20 7.0 98.5 1011.8 4.7 SW 15.5 SW 0.0 0.1
01:25 6.9 98.4 1011.8 3.0 SW 7.8 SW 0.0 0.1
01:30 6.9 98.5 1011.8 3.9 SSW 16.2 W 0.0 0.1
01:35 6.9 98.5 1011.8 4.3 SW 13.8 WSW 0.0 0.1
01:40 7.0 98.5 1011.8 6.4 WSW 17.6 W 0.0 0.1
01:45 7.0 98.4 1011.8 5.3 SW 17.3 SSW 0.0 0.1
01:50 7.0 98.3 1011.8 5.9 WSW 18.7 W 0.0 0.1
01:55 7.0 98.1 1011.6 5.7 WSW 17.6 W 0.0 0.1
02:00 7.0 98.0 1011.6 7.3 WSW 18.0 WSW 0.0 0.1
02:05 7.0 97.8 1011.6 5.4 WSW 14.5 WSW 0.0 0.1
02:10 6.9 97.8 1011.6 7.4 WSW 18.7 SSW 0.0 0.1
02:15 6.9 97.6 1011.6 5.8 WSW 19.4 SSW 0.0 0.1
02:20 6.8 97.5 1011.6 5.8 SW 16.2 W 0.0 0.1
02:25 6.8 97.6 1011.6 6.5 WSW 17.6 WNW 0.0 0.1
02:30 6.8 97.6 1011.6 6.3 WSW 22.2 W 0.0 0.1
02:35 6.7 97.6 1011.6 7.2 WSW 22.2 W 0.0 0.1
02:40 6.7 97.6 1011.6 6.9 WSW 26.5 SW 0.0 0.1
02:45 6.7 97.6 1011.5 8.0 WSW 22.9 WSW 0.0 0.1
02:50 6.6 97.8 1011.5 6.9 WSW 20.1 W 0.0 0.1
02:55 6.6 97.9 1011.5 7.2 WSW 20.1 WNW 0.0 0.1
03:00 6.6 97.9 1011.5 7.2 WSW 24.0 WNW 0.0 0.1
03:05 6.6 97.9 1011.5 7.5 WSW 21.9 WSW 0.0 0.1
03:10 6.5 97.9 1011.5 6.7 WSW 21.2 SW 0.0 0.1
03:15 6.5 97.9 1011.6 9.2 WSW 22.9 W 0.0 0.1
03:20 6.5 97.8 1011.6 6.8 SW 16.9 SW 0.0 0.1
03:25 6.6 97.3 1011.6 4.7 SW 14.1 WNW 0.0 0.1
03:30 6.7 96.5 1011.6 5.5 SSW 10.9 S 0.0 0.1
03:35 6.7 95.3 1011.6 4.8 SSW 13.8 W 0.0 0.1
03:40 6.8 93.7 1011.6 4.2 SSW 14.5 SSW 0.0 0.1
03:45 6.8 92.0 1011.6 4.7 SSW 13.1 SW 0.0 0.1
03:50 7.0 90.4 1011.6 5.3 SSW 11.6 WSW 0.0 0.1
03:55 7.1 88.6 1011.6 6.7 SSW 18.7 WSW 0.0 0.1
04:00 7.2 88.0 1011.6 4.4 SW 13.1 NW 0.0 0.1
04:05 7.2 87.4 1011.6 4.9 SW 13.4 SW 0.0 0.1
04:10 7.3 86.4 1011.6 5.7 SSW 16.2 S 0.0 0.1
04:15 7.4 84.8 1011.6 5.1 SW 11.3 SW 0.0 0.1
04:20 7.4 84.4 1011.6 4.2 SSW 12.4 S 0.0 0.2
04:25 7.5 83.3 1011.6 4.1 S 16.6 SSW 0.0 0.5
04:30 7.8 80.1 1011.6 6.0 S 20.1 S 0.0 1.3
04:35 8.0 78.8 1011.7 4.8 SE 9.9 ENE 0.0 2.5
04:40 8.0 78.1 1011.7 4.5 S 12.0 WSW 0.0 4.3
04:45 8.1 77.0 1011.7 3.1 SE 12.7 SE 0.0 7.0
04:50 8.1 77.3 1011.7 3.1 SE 15.2 E 0.0 12.0
04:55 7.8 79.7 1011.7 3.2 S 8.8 WNW 0.0 15.6
05:00 8.0 78.3 1011.7 3.4 ESE 9.9 ESE 0.0 26.1
05:05 8.2 76.7 1011.7 2.3 ESE 7.4 NE 0.0 46.9
05:10 8.4 77.6 1011.7 1.3 ENE 4.6 ENE 0.0 45.6
05:15 8.4 77.2 1011.8 2.2 SSE 8.1 ESE 0.0 42.6
05:20 8.6 76.2 1011.8 2.9 SE 8.8 SSE 0.0 55.2
05:25 8.9 74.1 1011.9 2.9 SE 7.1 ENE 0.0 40.9
05:30 9.1 74.5 1011.9 2.2 ESE 9.9 ESE 0.0 38.3
05:35 9.2 73.1 1011.9 2.3 ESE 7.1 SSE 0.0 40.6
05:40 9.5 70.9 1011.9 1.9 NE 6.0 ESE 0.0 77.7
05:45 9.7 70.9 1012.0 2.7 ENE 7.4 ENE 0.0 89.0
05:50 9.8 71.1 1012.0 4.6 E 11.6 ESE 0.0 167.9
05:55 9.9 70.7 1012.1 2.5 ENE 7.1 NE 0.0 190.2
06:00 9.9 71.5 1012.1 3.3 S 8.5 SE 0.0 206.4
06:05 9.8 71.4 1012.1 3.8 SW 13.4 E 0.0 223.0
06:10 9.8 71.6 1012.1 3.1 ESE 8.5 E 0.0 240.2
06:15 10.0 73.1 1012.1 5.3 SE 14.8 E 0.0 256.5
06:20 10.2 70.6 1012.1 3.4 S 10.6 SW 0.0 272.4
06:25 10.1 69.0 1012.1 5.4 S 16.6 SSE 0.0 288.5
06:30 10.2 69.1 1012.1 6.9 SSW 17.3 SSE 0.0 304.9
06:35 10.5 70.6 1012.1 4.9 S 20.1 SW 0.0 322.3
06:40 10.6 69.3 1012.1 5.7 SW 13.4 SW 0.0 338.9
06:45 10.6 70.7 1012.3 2.7 WSW 7.4 WSW 0.0 355.0
06:50 10.6 68.6 1012.3 5.4 SSW 19.4 SW 0.0 371.2
06:55 10.7 67.1 1012.2 5.2 S 16.2 SSW 0.0 387.9
07:00 10.8 66.4 1012.2 5.8 SSE 15.5 SSE 0.0 404.2
07:05 10.9 66.8 1012.1 6.4 SSW 17.6 SW 0.0 420.6
07:10 11.0 67.1 1012.1 5.0 SSW 14.1 SW 0.0 437.0
07:15 11.0 67.4 1012.2 6.9 SE 20.5 S 0.0 452.7
Máxima 11.0 98.5 1012.3 9.2 WSW 26.5 SW 0.0 452.7
Mínima 6.5 66.4 1011.5
Total 0.0